STARLINK-31671, 59516

Orbit data source: Space-Track

STARLINK-31671, 59516 is a payload satellite owned by SpaceX/Seattle (US) in LEO that was launched on Wed, 17 Apr 2024 UTC via an FALCON 9 launch vehicle from the Air Force Eastern Test Range (AFETR). Payload-class satellites include a variety of spacecraft equipped with specific instruments for various scientific and technological missions. These include communications satellites like Starlink; space stations such as the ISS; scientific satellites like the Hubble; Earth observation satellites from companies like Planet Labs, Umbra, and HawkEye 360; GPS; miniature CubeSats for education and research; and military/defense satellites.

Loading next visibility...
Identifier
59516, 2024-073F
Orbit
LEO
Country
Flag of USUS
Related business
Manufacturer
SpaceX/Seattle
Mission
Operational Commercial Communications
Bus & Motor
STARLINK V2M, Unknown motor
Mass
730 kg wet, ~700 kg dry
Launch date (UTC)
2024-04-17 (2 years ago)
Launch vehicle
FALCON 9
Launch site
Air Force Eastern Test Range (AFETR)
Object type
Payload
Rocket body
Debris
Shape & HBR
Box + 2 Pan, 17.7 m
Radar Cross Section
33.884 m², Large (>1 m²)

Expand to show TLE details & history
Last TLE update: 2 days ago

TLE from 2 days ago
0 STARLINK-31671
1 59516U 24073F   26171.22029389  .00001579  00000-0  66875-4 0  9992
2 59516  43.0016  99.2079 0000992 268.9913  91.0825 15.27586339121857
Epoch: 2026-06-20T05:17Z
TLE epoch observation values (Epoch: 2026-06-20T05:17:13.392Z)
Latitude
-0°
Longitude
111.46405°
Altitude
482.819 km
Speed
7.626 km/s
True Right ascension
06h 36m 49s
True Declination
0° 00' 00"
Sunlit
Object was in daylight at epoch
Visualization orbit readout
Latitude
Unknown
Longitude
Unknown
Altitude
Unknown
Speed
Unknown
Apparent Right ascension
Unknown
Apparent Declination
Unknown
Sunlit
N/A
Visualization observer readout
Local Sidereal Time
14:09:25
Azimuth
Unknown
Elevation
Unknown
Doppler factor
Unknown
Orbital elements
Apogee altitude
485.656 km
Perigee altitude
484.294 km
Semi-major axis
6,863.112 km
Eccentricity
0.0001
Inclination
43.0016°
RAAN
99.2079°
Arg. of periapsis
268.9913°
True anomaly
91.09387°
Mean anomaly
91.0825°
Eccentric anomaly
91.08818°
Mean motion
3.81735 °/min
Orbital period
94.31 mins
BSTAR
0.000066875
Loading maneuver chart data...
Computing Atmospheric mass density...

Documentation

Showing up to 5 results
|